When you browse on this site, cookies collect data to enhance your experience and personalize the content and advertising you see.
Visit our Privacy Policy to learn more. By continuing to use the site, you agree to this use of cookies and data.
  • Em Portugal
  • Lista de países
  • Para 7 dias
  • Temperatura da água
  • Mapas de satélite
  • Mapa do tempo
  • Widgets de tempo
  • user-avatar
    Iniciar Sessão

    Previsão horária em Jakuszowice

    Hoje, 17 Julho, Quarta-feira

    Tempo Temperatura Precipitação Vento Pressão Humidade
    00:00 +12°C° 0 mm 3 m/s 742 mmHg 86%
    01:00 +12°C° 0 mm 3 m/s 742 mmHg 87%
    02:00 +12°C° 0.1 mm 3 m/s 742 mmHg 88%
    03:00 +13°C° 0.1 mm 3 m/s 742 mmHg 88%
    04:00 +13°C° 0.1 mm 4 m/s 742 mmHg 89%
    05:00 +14°C° 0.1 mm 4 m/s 742 mmHg 87%
    06:00 +14°C° 0.1 mm 5 m/s 741 mmHg 85%
    07:00 +15°C° 0.1 mm 5 m/s 741 mmHg 83%
    08:00 +16°C° 0.2 mm 6 m/s 741 mmHg 76%
    09:00 +19°C° 0.2 mm 6 m/s 741 mmHg 68%
    10:00 +21°C° 0.2 mm 7 m/s 742 mmHg 60%
    11:00 +21°C° 0.2 mm 7 m/s 741 mmHg 58%
    12:00 +21°C° 0.2 mm 6 m/s 741 mmHg 57%
    13:00 +21°C° 0.2 mm 6 m/s 741 mmHg 56%
    14:00 +21°C° 0.1 mm 6 m/s 741 mmHg 57%
    15:00 +21°C° 0.1 mm 6 m/s 741 mmHg 58%
    16:00 +21°C° 0.1 mm 5 m/s 741 mmHg 59%
    17:00 +20°C° 0 mm 4 m/s 741 mmHg 63%
    18:00 +19°C° 0 mm 4 m/s 741 mmHg 68%
    19:00 +18°C° 0 mm 3 m/s 741 mmHg 72%
    20:00 +17°C° 0 mm 2 m/s 742 mmHg 76%
    21:00 +15°C° 0 mm 2 m/s 742 mmHg 80%
    22:00 +14°C° 0 mm 2 m/s 742 mmHg 85%
    23:00 +14°C° 0 mm 2 m/s 742 mmHg 86%

    Amanhã, 18 Julho, Quinta-feira

    Tempo Temperatura Precipitação Vento Pressão Humidade
    00:00 +13°C° 0 mm 2 m/s 742 mmHg 88%
    01:00 +13°C° 0 mm 1 m/s 743 mmHg 90%
    02:00 +13°C° 0 mm 1 m/s 743 mmHg 90%
    03:00 +12°C° 0 mm 1 m/s 743 mmHg 90%
    04:00 +12°C° 0 mm 1 m/s 742 mmHg 91%
    05:00 +14°C° 0 mm 1 m/s 743 mmHg 85%
    06:00 +16°C° 0 mm 1 m/s 743 mmHg 78%
    07:00 +19°C° 0 mm 1 m/s 743 mmHg 72%
    08:00 +20°C° 0.1 mm 1 m/s 743 mmHg 66%
    09:00 +21°C° 0.1 mm 1 m/s 743 mmHg 61%
    10:00 +22°C° 0.1 mm 1 m/s 743 mmHg 55%
    11:00 +23°C° 0 mm 1 m/s 743 mmHg 54%
    12:00 +23°C° 0 mm 1 m/s 743 mmHg 52%
    13:00 +24°C° 0 mm 1 m/s 743 mmHg 50%
    14:00 +24°C° 0 mm 1 m/s 743 mmHg 50%
    15:00 +24°C° 0 mm 1 m/s 743 mmHg 49%
    16:00 +24°C° 0 mm 1 m/s 743 mmHg 49%
    17:00 +23°C° 0 mm 1 m/s 743 mmHg 53%
    18:00 +22°C° 0 mm 1 m/s 743 mmHg 58%
    19:00 +21°C° 0 mm 1 m/s 743 mmHg 63%
    20:00 +19°C° 0 mm 1 m/s 743 mmHg 67%
    21:00 +18°C° 0 mm 1 m/s 743 mmHg 71%
    22:00 +16°C° 0 mm 1 m/s 744 mmHg 75%
    23:00 +15°C° 0 mm 1 m/s 744 mmHg 77%

    Depois de amanhã, 19 Julho, Sexta-feira

    Tempo Temperatura Precipitação Vento Pressão Humidade
    00:00 +15°C° 0 mm 1 m/s 744 mmHg 80%
    01:00 +14°C° 0 mm 1 m/s 744 mmHg 82%
    02:00 +14°C° 0 mm 1 m/s 744 mmHg 84%
    03:00 +14°C° 0 mm 1 m/s 744 mmHg 86%
    04:00 +13°C° 0 mm 1 m/s 744 mmHg 88%
    05:00 +15°C° 0 mm 1 m/s 744 mmHg 81%
    06:00 +18°C° 0 mm 1 m/s 744 mmHg 74%
    07:00 +20°C° 0 mm 1 m/s 744 mmHg 68%
    08:00 +22°C° 0 mm 1 m/s 744 mmHg 62%
    09:00 +24°C° 0 mm 1 m/s 744 mmHg 56%
    10:00 +25°C° 0 mm 1 m/s 744 mmHg 50%
    11:00 +26°C° 0 mm 2 m/s 744 mmHg 48%
    12:00 +27°C° 0 mm 2 m/s 744 mmHg 45%
    13:00 +27°C° 0 mm 2 m/s 744 mmHg 43%
    14:00 +28°C° 0 mm 2 m/s 744 mmHg 43%
    15:00 +28°C° 0 mm 1 m/s 744 mmHg 42%
    16:00 +28°C° 0 mm 1 m/s 744 mmHg 42%
    17:00 +26°C° 0 mm 1 m/s 744 mmHg 48%
    18:00 +25°C° 0 mm 1 m/s 744 mmHg 55%
    19:00 +23°C° 0 mm 1 m/s 744 mmHg 62%
    20:00 +22°C° 0.3 mm 1 m/s 744 mmHg 68%
    21:00 +20°C° 0.3 mm 1 m/s 744 mmHg 75%
    22:00 +19°C° 0.3 mm 1 m/s 744 mmHg 82%
    23:00 +19°C° 0.2 mm 1 m/s 744 mmHg 83%

    20 Julho, Sábado

    Tempo Temperatura Precipitação Vento Pressão Humidade
    00:00 +18°C° 0.2 mm 1 m/s 744 mmHg 84%
    01:00 +18°C° 0.2 mm 1 m/s 744 mmHg 86%
    02:00 +18°C° 0.1 mm 1 m/s 744 mmHg 86%
    03:00 +16°C° 0.1 mm 1 m/s 744 mmHg 86%
    04:00 +15°C° 0.1 mm 0 m/s 744 mmHg 86%
    05:00 +19°C° 0.1 mm 1 m/s 744 mmHg 82%
    06:00 +20°C° 0.1 mm 1 m/s 745 mmHg 78%
    07:00 +22°C° 0.1 mm 1 m/s 745 mmHg 75%
    08:00 +23°C° 0 mm 1 m/s 745 mmHg 68%
    09:00 +25°C° 0 mm 1 m/s 745 mmHg 61%
    10:00 +27°C° 0 mm 2 m/s 745 mmHg 55%
    11:00 +28°C° 0.1 mm 2 m/s 745 mmHg 52%
    12:00 +29°C° 0.1 mm 1 m/s 745 mmHg 49%
    13:00 +30°C° 0.1 mm 1 m/s 745 mmHg 45%
    14:00 +29°C° 0 mm 1 m/s 745 mmHg 47%
    15:00 +29°C° 0 mm 1 m/s 745 mmHg 48%
    16:00 +29°C° 0 mm 2 m/s 745 mmHg 50%
    17:00 +28°C° 0 mm 1 m/s 745 mmHg 55%
    18:00 +26°C° 0 mm 1 m/s 745 mmHg 60%
    19:00 +25°C° 0 mm 1 m/s 745 mmHg 64%
    20:00 +24°C° 0 mm 1 m/s 746 mmHg 67%
    21:00 +23°C° 0 mm 1 m/s 746 mmHg 70%
    22:00 +22°C° 0 mm 1 m/s 746 mmHg 73%
    23:00 +21°C° 0 mm 1 m/s 746 mmHg 76%

    21 Julho, Domingo

    Tempo Temperatura Precipitação Vento Pressão Humidade
    00:00 +20°C° 0 mm 1 m/s 746 mmHg 79%
    01:00 +20°C° 0 mm 1 m/s 746 mmHg 82%
    02:00 +19°C° 0 mm 1 m/s 746 mmHg 83%
    03:00 +19°C° 0 mm 1 m/s 746 mmHg 84%
    04:00 +19°C° 0 mm 1 m/s 746 mmHg 84%
    05:00 +20°C° 0 mm 1 m/s 746 mmHg 79%
    06:00 +21°C° 0 mm 2 m/s 746 mmHg 73%
    07:00 +24°C° 0 mm 2 m/s 746 mmHg 68%
    08:00 +24°C° 0.1 mm 2 m/s 746 mmHg 67%
    09:00 +24°C° 0.1 mm 2 m/s 746 mmHg 66%
    10:00 +24°C° 0.1 mm 2 m/s 746 mmHg 65%
    11:00 +26°C° 0 mm 2 m/s 746 mmHg 59%
    12:00 +27°C° 0 mm 2 m/s 746 mmHg 54%
    13:00 +29°C° 0 mm 2 m/s 746 mmHg 48%
    14:00 +30°C° 0 mm 2 m/s 746 mmHg 47%
    15:00 +30°C° 0 mm 2 m/s 746 mmHg 47%
    16:00 +30°C° 0 mm 2 m/s 745 mmHg 47%
    17:00 +28°C° 0.8 mm 2 m/s 745 mmHg 57%
    18:00 +26°C° 0.8 mm 2 m/s 745 mmHg 68%
    19:00 +24°C° 0.8 mm 1 m/s 745 mmHg 79%
    20:00 +23°C° 1.1 mm 2 m/s 745 mmHg 82%
    21:00 +21°C° 1.1 mm 2 m/s 746 mmHg 85%
    22:00 +20°C° 1.1 mm 2 m/s 746 mmHg 88%
    23:00 +19°C° 0.2 mm 2 m/s 746 mmHg 90%

    22 Julho, Segunda-feira

    Tempo Temperatura Precipitação Vento Pressão Humidade
    00:00 +19°C° 0.2 mm 2 m/s 746 mmHg 91%
    01:00 +18°C° 0.2 mm 3 m/s 746 mmHg 93%
    02:00 +18°C° 0 mm 3 m/s 746 mmHg 93%
    03:00 +18°C° 0 mm 4 m/s 746 mmHg 93%
    04:00 +17°C° 0 mm 4 m/s 746 mmHg 93%
    05:00 +18°C° 0 mm 4 m/s 747 mmHg 90%
    06:00 +19°C° 0 mm 5 m/s 747 mmHg 87%
    07:00 +21°C° 0 mm 5 m/s 747 mmHg 83%
    08:00 +22°C° 0.2 mm 5 m/s 747 mmHg 78%
    09:00 +23°C° 0.2 mm 5 m/s 747 mmHg 73%
    10:00 +25°C° 0.2 mm 5 m/s 747 mmHg 68%
    11:00 +25°C° 0.7 mm 5 m/s 747 mmHg 68%
    12:00 +26°C° 0.7 mm 5 m/s 747 mmHg 67%
    13:00 +26°C° 0.7 mm 5 m/s 747 mmHg 66%
    14:00 +26°C° 1 mm 4 m/s 747 mmHg 67%
    15:00 +26°C° 1 mm 4 m/s 746 mmHg 67%
    16:00 +26°C° 1 mm 4 m/s 746 mmHg 68%
    17:00 +25°C° 0.6 mm 4 m/s 746 mmHg 72%
    18:00 +22°C° 0.6 mm 3 m/s 746 mmHg 77%
    19:00 +21°C° 0.6 mm 3 m/s 746 mmHg 81%
    20:00 +20°C° 0.5 mm 3 m/s 746 mmHg 85%
    21:00 +19°C° 0.5 mm 2 m/s 746 mmHg 88%
    22:00 +18°C° 0.5 mm 2 m/s 746 mmHg 91%
    23:00 +18°C° 0.1 mm 2 m/s 746 mmHg 92%
    Mostrar mais